Regional Weather Roundup
Issued by NWS

Home | Current Version | Previous Version | Text Only | Print | Product List | Glossary Off
Versions: 1 2 3 4 5 6 7 8 9 10 11 12 13 14 15 16 17 18 19 20 21 22 23 24 25 26 27 28 29 30 31 32 33 34 35 36 37 38 39 40 41 42 43 44 45 46 47 48 49 50

000
ASUS45 KABQ 170310
RWRNM
NEW MEXICO REGIONAL WEATHER ROUNDUP
NATIONAL WEATHER SERVICE ALBUQUERQUE NM
900 PM MDT WED AUG 16 2017

NOTE: "FAIR" MEANS FEW OR NO CLOUDS BELOW 12,000 FEET AGL WITH NO
       SIGNIFICANT WEATHER OR OBSTRUCTIONS TO VISION.

      THIS PRODUCT IS RELEASED AS TWO VERSIONS.  ONE VERSION NEAR
      THE TOP OF THE HOUR CONTAINING PRELIMINARY DATA FROM ALBUQUERQUE
      AND OTHER STATIONS.  A FINAL VERSION WITH ADDITIONAL DATA IS
      ISSUED ABOUT 10 MINUTES AFTER THE HOUR.

NMZ501-503-504-510>518-170400-
NORTHWEST PLATEAU/NORTHCENTRAL MOUNTAINS

CITY           SKY/WX    TMP DP  RH WIND       PRES   REMARKS
FARMINGTON     FAIR      75  23  14 N5        30.10R
LOS ALAMOS     FAIR      71  27  19 W9        30.25R
SANTA FE       FAIR      72  28  19 NW3       30.17R
TAOS           MOCLDY    70  33  25 W5        30.26R
ANGEL FIRE     MOCLDY    49  41  74 W5        30.35R

$$
NMZ402-403-502-505>509-170400-
WESTCENTRAL MOUNTAINS/SOUTHWEST MOUNTAINS

CITY           SKY/WX    TMP DP  RH WIND       PRES   REMARKS
GALLUP         FAIR      69  34  27 SW7       30.21R
GRANTS         FAIR      70  24  18 W9        30.23R
SILVER CITY    FAIR      70  33  25 W6        30.16R

$$
NMZ407-409-411-412-170400-
SOUTHERN DESERTS

CITY           SKY/WX    TMP DP  RH WIND       PRES   REMARKS
DEMING         FAIR      78  40  25 SW7       30.06R
LAS CRUCES     FAIR      78  43  28 W7        30.08R
HOLLOMAN AFB   FAIR      83  46  27 S7        30.05R
ALAMOGORDO     FAIR      75  46  35 E7        30.05R
T OR C         FAIR      84  37  18 S9        30.06R

$$
NMZ519>523-170400-
CENTRAL VALLEYS/CENTRAL HIGHLANDS

CITY           SKY/WX    TMP DP  RH WIND       PRES   REMARKS
ALBUQUERQUE    FAIR      82  36  19 S9        30.10R
DOUBLE EAGLE   PTCLDY    72  41  33 SW9       30.14R
MORIARTY ARPT  FAIR      67  47  48 S5        30.19R
CLINES CORNERS FAIR      60  39  45 SW10      30.25R
BELEN          FAIR      75  38  26 S7        30.10R
SOCORRO        CLOUDY    78  44  29 CALM      30.07R

$$
NMZ524>526-539-540-170400-
SOUTHCENTRAL MOUNTAINS

CITY           SKY/WX    TMP DP  RH WIND       PRES   REMARKS
RUIDOSO        FAIR      66  41  39 SW8       30.26R

$$
NMZ527>531-170400-
NORTHEAST HIGHLANDS/NORTHEAST PLAINS

CITY           SKY/WX    TMP DP  RH WIND       PRES   REMARKS
LAS VEGAS      FAIR      63  40  42 S8        30.23R
RATON          FAIR      64  49  57 CALM      30.19R
CLAYTON        FAIR      61  56  83 N9        30.12R

$$
NMZ532>537-170400-
EASTCENTRAL PLAINS

CITY           SKY/WX    TMP DP  RH WIND       PRES   REMARKS
SANTA ROSA     FAIR      74  46  36 SE12      30.08R
TUCUMCARI      FAIR      72  54  53 E8        30.03R
CANNON AFB     FAIR      73  61  68 E9        30.09R
CLOVIS AIRPORT NOT AVBL

$$
NMZ028-029-538-170400-
SOUTHEAST PLAINS

CITY           SKY/WX    TMP DP  RH WIND       PRES   REMARKS
ROSWELL        FAIR      82  51  34 S8        29.99R
ARTESIA        FAIR      82  54  36 S6        29.99R
CARLSBAD       FAIR      76  64  66 SW6       29.96R
HOBBS          FAIR      77  55  47 E8        30.02R


$$



USA.gov is the U.S. government's official web portal to all federal, state and local government web resources and services.